sat.trackr.live / text

‹ back to catalog

STARLINK-34915

NORAD 65187 · 2025-175P

PAYLOAD ACTIVE UNKNOWN

§ Identity

Operator
Country
US
Launch date
2025-08-14
Launch site
AFWTR
Launch vehicle
Mass (kg)
RCS (m²)

Purposes: comms

External: N2YO · Heavens-Above · Gunter

§ Orbital elements

Epoch: 2026-09-20T21:55:57.049536Z

Period
93.91 min
Inclination
97.2834°
Eccentricity
0.0002034
Mean motion
15.33446558 rev/d
Perigee alt
464.1 km
Apogee alt
466.9 km
Semi-major
6,843.7 km
B*
3.6401e-4
RAAN
132.8509°
Arg perigee
88.8593°
Mean anomaly
271.2883°
Rev number
6,219

§ Raw data

STARLINK-349151 65187U 25175P   26263.91385474  .00011696  00000+0  36401-3 0  99962 65187  97.2834 132.8509 0002034  88.8593 271.2883 15.33446558 62193

JSON: /api/v1/satellites/65187 · /tle

For live sub-satellite position, see the globe view (requires WebGL).

§ Visibility from observer

Set your observer location to see the next 7 days of passes ≥ 10°. The values pass through the URL so the page stays shareable.

No JS? Fill the form by hand. The geolocation button needs JavaScript.